• In Lithuania
  • List of Countries
  • For 7 days
  • Water Temperature
  • Satellite Maps
  • Weather Map
  • Weather Widgets
  • user-avatar
    Login

    Hourly Weather Bregenz

    Today, 21 September, Thursday

    Time Temperature Precipitation Wind Pressure Humidity
    00:00 +1°C° 0 mm 1 mps 648 mmHg 90%
    01:00 -1°C° 0 mm 2 mps 648 mmHg 88%
    02:00 -1°C° 0 mm 2 mps 648 mmHg 86%
    03:00 +1°C° 0 mm 1 mps 647 mmHg 84%
    04:00 +1°C° 0 mm 1 mps 647 mmHg 82%
    05:00 +1°C° 0 mm 1 mps 647 mmHg 79%
    06:00 +2°C° 0 mm 1 mps 647 mmHg 76%
    07:00 +2°C° 0 mm 1 mps 647 mmHg 73%
    08:00 +5°C° 0 mm 1 mps 648 mmHg 65%
    09:00 +8°C° 0 mm 1 mps 648 mmHg 57%
    10:00 +11°C° 0 mm 1 mps 649 mmHg 48%
    11:00 +12°C° 0 mm 1 mps 649 mmHg 47%
    12:00 +13°C° 0 mm 2 mps 649 mmHg 45%
    13:00 +14°C° 0 mm 2 mps 649 mmHg 43%
    14:00 +14°C° 0 mm 2 mps 649 mmHg 46%
    15:00 +14°C° 0 mm 2 mps 649 mmHg 49%
    16:00 +13°C° 0 mm 2 mps 648 mmHg 51%
    17:00 +10°C° 0 mm 2 mps 648 mmHg 62%
    18:00 +8°C° 0 mm 1 mps 647 mmHg 72%
    19:00 +6°C° 0 mm 1 mps 647 mmHg 83%
    20:00 +5°C° 0 mm 1 mps 647 mmHg 81%
    21:00 +5°C° 0 mm 1 mps 647 mmHg 80%
    22:00 +5°C° 0 mm 1 mps 647 mmHg 79%
    23:00 +5°C° 0 mm 1 mps 647 mmHg 77%

    Tomorrow, 22 September, Friday

    Time Temperature Precipitation Wind Pressure Humidity
    00:00 +5°C° 0 mm 1 mps 647 mmHg 75%
    01:00 +5°C° 0 mm 1 mps 647 mmHg 73%
    02:00 +4°C° 0 mm 1 mps 647 mmHg 72%
    03:00 +4°C° 0 mm 1 mps 647 mmHg 71%
    04:00 +4°C° 0 mm 1 mps 647 mmHg 70%
    05:00 +5°C° 0 mm 1 mps 647 mmHg 70%
    06:00 +5°C° 0 mm 1 mps 647 mmHg 69%
    07:00 +5°C° 0 mm 1 mps 648 mmHg 69%
    08:00 +8°C° 0 mm 1 mps 648 mmHg 62%
    09:00 +11°C° 0 mm 1 mps 649 mmHg 56%
    10:00 +13°C° 0 mm 1 mps 650 mmHg 49%
    11:00 +14°C° 0 mm 1 mps 650 mmHg 48%
    12:00 +15°C° 0 mm 1 mps 650 mmHg 47%
    13:00 +16°C° 0 mm 2 mps 650 mmHg 46%
    14:00 +16°C° 0 mm 2 mps 650 mmHg 49%
    15:00 +15°C° 0 mm 1 mps 650 mmHg 52%
    16:00 +15°C° 0 mm 1 mps 650 mmHg 56%
    17:00 +12°C° 0 mm 1 mps 650 mmHg 65%
    18:00 +10°C° 0 mm 1 mps 649 mmHg 75%
    19:00 +7°C° 0 mm 1 mps 649 mmHg 85%
    20:00 +7°C° 0 mm 1 mps 649 mmHg 86%
    21:00 +7°C° 0 mm 1 mps 649 mmHg 86%
    22:00 +6°C° 0 mm 1 mps 649 mmHg 87%
    23:00 +6°C° 0 mm 1 mps 649 mmHg 86%

    Day after tomorrow, 23 September, Saturday

    Time Temperature Precipitation Wind Pressure Humidity
    00:00 +6°C° 0 mm 1 mps 649 mmHg 85%
    01:00 +5°C° 0 mm 1 mps 649 mmHg 84%
    02:00 +5°C° 0 mm 1 mps 649 mmHg 83%
    03:00 +5°C° 0 mm 1 mps 649 mmHg 82%
    04:00 +5°C° 0 mm 1 mps 649 mmHg 81%
    05:00 +5°C° 0 mm 1 mps 649 mmHg 81%
    06:00 +5°C° 0 mm 1 mps 649 mmHg 80%
    07:00 +6°C° 0 mm 1 mps 649 mmHg 79%
    08:00 +8°C° 0 mm 1 mps 649 mmHg 72%
    09:00 +11°C° 0 mm 1 mps 650 mmHg 65%
    10:00 +13°C° 0 mm 1 mps 651 mmHg 59%
    11:00 +14°C° 0 mm 1 mps 650 mmHg 57%
    12:00 +15°C° 0 mm 1 mps 650 mmHg 55%
    13:00 +16°C° 0 mm 2 mps 650 mmHg 54%
    14:00 +15°C° 0.1 mm 2 mps 650 mmHg 58%
    15:00 +15°C° 0.1 mm 2 mps 650 mmHg 63%
    16:00 +14°C° 0.1 mm 2 mps 649 mmHg 67%
    17:00 +12°C° 0.1 mm 2 mps 649 mmHg 76%
    18:00 +10°C° 0.1 mm 1 mps 649 mmHg 85%
    19:00 +8°C° 0.1 mm 1 mps 648 mmHg 93%
    20:00 +8°C° 0 mm 1 mps 648 mmHg 94%
    21:00 +7°C° 0 mm 1 mps 648 mmHg 95%
    22:00 +7°C° 0 mm 1 mps 648 mmHg 95%
    23:00 +7°C° 0 mm 1 mps 648 mmHg 95%

    24 September, Sunday

    Time Temperature Precipitation Wind Pressure Humidity
    00:00 +6°C° 0 mm 1 mps 648 mmHg 95%
    01:00 +6°C° 0 mm 1 mps 647 mmHg 94%
    02:00 +6°C° 0 mm 1 mps 647 mmHg 94%
    03:00 +6°C° 0 mm 1 mps 647 mmHg 93%
    04:00 +6°C° 0 mm 1 mps 647 mmHg 92%
    05:00 +6°C° 0.1 mm 1 mps 647 mmHg 91%
    06:00 +6°C° 0.1 mm 1 mps 647 mmHg 90%
    07:00 +6°C° 0.1 mm 1 mps 647 mmHg 90%
    08:00 +8°C° 0.2 mm 1 mps 648 mmHg 85%
    09:00 +10°C° 0.2 mm 1 mps 648 mmHg 80%
    10:00 +12°C° 0.2 mm 1 mps 649 mmHg 75%
    11:00 +12°C° 0.3 mm 1 mps 649 mmHg 73%
    12:00 +13°C° 0.3 mm 2 mps 649 mmHg 72%
    13:00 +13°C° 0.3 mm 2 mps 648 mmHg 70%
    14:00 +13°C° 0.6 mm 2 mps 648 mmHg 73%
    15:00 +13°C° 0.6 mm 2 mps 648 mmHg 76%
    16:00 +12°C° 0.6 mm 2 mps 648 mmHg 79%
    17:00 +10°C° 0.2 mm 2 mps 648 mmHg 84%
    18:00 +9°C° 0.2 mm 1 mps 647 mmHg 90%
    19:00 +7°C° 0.2 mm 1 mps 647 mmHg 95%
    20:00 +7°C° 0 mm 1 mps 647 mmHg 95%
    21:00 +6°C° 0 mm 1 mps 647 mmHg 96%
    22:00 +6°C° 0 mm 1 mps 647 mmHg 96%
    23:00 +6°C° 0 mm 1 mps 647 mmHg 96%

    25 September, Monday

    Time Temperature Precipitation Wind Pressure Humidity
    00:00 +5°C° 0 mm 1 mps 647 mmHg 95%
    01:00 +5°C° 0 mm 1 mps 646 mmHg 95%
    02:00 +5°C° 0 mm 1 mps 646 mmHg 95%
    03:00 +5°C° 0 mm 1 mps 646 mmHg 95%
    04:00 +5°C° 0 mm 1 mps 646 mmHg 95%
    05:00 +5°C° 0 mm 1 mps 646 mmHg 94%
    06:00 +5°C° 0 mm 1 mps 646 mmHg 94%
    07:00 +5°C° 0 mm 1 mps 646 mmHg 93%
    08:00 +7°C° 0 mm 1 mps 646 mmHg 87%
    09:00 +9°C° 0 mm 1 mps 646 mmHg 81%
    10:00 +11°C° 0 mm 1 mps 647 mmHg 74%
    11:00 +12°C° 0 mm 1 mps 647 mmHg 71%
    12:00 +12°C° 0 mm 1 mps 647 mmHg 68%
    13:00 +13°C° 0 mm 2 mps 647 mmHg 65%
    14:00 +13°C° 0.1 mm 2 mps 647 mmHg 68%
    15:00 +12°C° 0.1 mm 1 mps 647 mmHg 71%
    16:00 +12°C° 0.1 mm 1 mps 647 mmHg 74%
    17:00 +11°C° 0.2 mm 1 mps 646 mmHg 81%
    18:00 +9°C° 0.2 mm 1 mps 646 mmHg 87%
    19:00 +8°C° 0.2 mm 1 mps 646 mmHg 94%
    20:00 +7°C° 0.1 mm 1 mps 646 mmHg 94%
    21:00 +7°C° 0.1 mm 1 mps 646 mmHg 94%
    22:00 +6°C° 0.1 mm 1 mps 646 mmHg 95%
    23:00 +6°C° 0 mm 1 mps 646 mmHg 94%

    26 September, Tuesday

    Time Temperature Precipitation Wind Pressure Humidity
    00:00 +6°C° 0 mm 1 mps 646 mmHg 94%
    01:00 +6°C° 0 mm 1 mps 646 mmHg 93%
    02:00 +6°C° 0 mm 1 mps 646 mmHg 93%
    03:00 +6°C° 0 mm 1 mps 646 mmHg 93%
    04:00 +5°C° 0 mm 1 mps 646 mmHg 93%
    05:00 +6°C° 0 mm 1 mps 646 mmHg 93%
    06:00 +6°C° 0 mm 1 mps 646 mmHg 92%
    07:00 +6°C° 0 mm 1 mps 646 mmHg 92%
    08:00 +8°C° 0 mm 1 mps 647 mmHg 84%
    09:00 +11°C° 0 mm 1 mps 647 mmHg 76%
    10:00 +12°C° 0 mm 0 mps 648 mmHg 68%
    11:00 +14°C° 0.1 mm 1 mps 648 mmHg 66%
    12:00 +14°C° 0.1 mm 1 mps 648 mmHg 64%
    13:00 +15°C° 0.1 mm 1 mps 648 mmHg 62%
    14:00 +14°C° 0.5 mm 1 mps 648 mmHg 65%
    15:00 +14°C° 0.5 mm 1 mps 648 mmHg 69%
    16:00 +14°C° 0.5 mm 1 mps 648 mmHg 73%
    17:00 +12°C° 0.4 mm 1 mps 648 mmHg 79%
    18:00 +10°C° 0.4 mm 1 mps 647 mmHg 84%
    19:00 +8°C° 0.4 mm 1 mps 647 mmHg 90%
    20:00 +8°C° 0 mm 1 mps 647 mmHg 91%
    21:00 +8°C° 0 mm 1 mps 648 mmHg 91%
    22:00 +7°C° 0 mm 1 mps 648 mmHg 92%
    23:00 +7°C° 0 mm 1 mps 648 mmHg 92%
    Show more